Weather History for VAAH - March, 2014

Change the Weather History Date:

Friday, March 7, 2014

  Actual Average Record
Temperature  
Mean Temperature 78 °F -  
Max Temperature 91 °F 95 °F 102 °F (2011)
Min Temperature 65 °F 69 °F 59 °F (2001)
Cooling Degree Days 13    
Growing Degree Days 28 (Base 50)    
Moisture  
Dew Point 49 °F    
Average Humidity 37    
Maximum Humidity 60    
Minimum Humidity 17    
Precipitation  
Precipitation 0.00 in 0.00 in - ()
Sea Level Pressure  
Sea Level Pressure 29.92 in    
Wind  
Wind Speed 5 mph ()    
Max Wind Speed 13 mph    
Max Gust Speed -    
Visibility 2.7 miles    
Events      
Averages and records for this station are not official NWS values.
T = Trace of Precipitation, MM = Missing Value Source: Averaged Metar Reports

Daily Weather History Graph

Daily Weather History Graph

Search for Another Location

Airport or City:

Trip Planner

Search our weather history database for the weather conditions in past years. The results will help you decide how hot, cold, wet, or windy it might be!

Date:

Astronomy

Mar. 07, 2014 Rise Set
Actual Time 6:56 AM IST 6:45 PM IST
Civil Twilight 6:33 AM IST 7:07 PM IST
Nautical Twilight 6:07 AM IST 7:33 PM IST
Astronomical Twilight 5:41 AM IST 8:00 PM IST
Moon 11:08 AM IST (3/7) No Moon Set
Length of Visible Light 12h 34m
Length of Day
11h 49m
Waxing Crescent, 37% of the Moon is Illuminated
Mar 7
Waxing Crescent
Mar 8
First Quarter
Mar 16
Full
Mar 24
Last Quarter
Mar 31
New

Hourly Weather History & Observations

Time (IST) Temp. Heat Index Dew Point Humidity Pressure Visibility Wind Dir Wind Speed Gust Speed Precip Events Conditions
12:10 AM 68.0 °F - 51.8 °F 56% - 2.5 mi NE 4.6 mph - N/A   Smoke
12:40 AM 66.2 °F - 50.0 °F 56% - 2.5 mi North 4.6 mph - N/A   Smoke
1:10 AM 66.2 °F - 51.8 °F 60% - 2.5 mi North 4.6 mph - N/A   Smoke
2:10 AM 66.2 °F - 46.4 °F 49% - 2.5 mi NE 4.6 mph - N/A   Smoke
2:30 AM 69 °F - 51 °F 42% 29.91 in 2 mi Calm Calm - -   Smoke
3:10 AM 66.2 °F - 46.4 °F 49% - 2.5 mi North 4.6 mph - N/A   Smoke
3:40 AM 66.2 °F - 46.4 °F 49% - 2.5 mi NNE 5.8 mph - N/A   Smoke
4:10 AM 66.2 °F - 44.6 °F 46% - 2.5 mi NNE 6.9 mph - N/A   Smoke
4:40 AM 66.2 °F - 44.6 °F 46% - 2.5 mi NE 8.1 mph - N/A   Smoke
5:30 AM 69 °F - 47 °F 33% 29.92 in 2 mi North 3.5 mph - -   Smoke
5:40 AM 66.2 °F - 42.8 °F 43% - 2.5 mi NNE 5.8 mph - N/A   Smoke
6:10 AM 64.4 °F - 42.8 °F 45% - 2.5 mi NE 5.8 mph - N/A   Smoke
6:40 AM 66.2 °F - 42.8 °F 43% - 2.5 mi NNE 6.9 mph - N/A   Smoke
7:10 AM 66.2 °F - 42.8 °F 43% - 2.2 mi ENE 5.8 mph - N/A   Smoke
8:10 AM 68.0 °F - 42.8 °F 40% - 1.9 mi NE 6.9 mph - N/A   Smoke
8:30 AM 70 °F - 47 °F 33% 29.99 in 2 mi NNE 6.9 mph - -   Smoke
8:40 AM 71.6 °F - 44.6 °F 38% - 2.2 mi NE 9.2 mph - N/A   Smoke
9:40 AM 77.0 °F - 46.4 °F 34% - 2.5 mi ENE 9.2 mph - N/A   Smoke
10:10 AM 80.6 °F - 50.0 °F 34% - 2.5 mi ENE 11.5 mph - N/A   Smoke
11:10 AM 84.2 °F - 51.8 °F 33% - 3.1 mi East 8.1 mph - N/A   Smoke
11:30 AM 86 °F - 56 °F 26% 30.01 in 2 mi East 6.9 mph - -  
11:40 AM 86.0 °F 84.2 °F 53.6 °F 33% - 3.7 mi ENE 8.1 mph - N/A   Unknown
12:10 PM 87.8 °F 85.7 °F 53.6 °F 31% - 3.7 mi ENE 9.2 mph - N/A   Unknown
12:40 PM 87.8 °F 85.7 °F 53.6 °F 31% - 3.7 mi ENE 9.2 mph - N/A   Unknown
1:10 PM 89.6 °F 87.7 °F 55.4 °F 31% - 3.7 mi East 8.1 mph - N/A   Unknown
1:40 PM 89.6 °F 87.7 °F 55.4 °F 31% - 3.7 mi ENE 10.4 mph - N/A   Unknown
2:10 PM 91.4 °F 89.1 °F 53.6 °F 28% - 3.7 mi NE 12.7 mph - N/A   Unknown
2:30 PM 90 °F - 56 °F 22% 29.93 in 2 mi ENE 5.8 mph - -  
2:40 PM 91.4 °F 89.4 °F 55.4 °F 29% - 3.7 mi ENE 8.1 mph - N/A   Unknown
3:10 PM 91.4 °F 89.4 °F 55.4 °F 29% 29.89 in 3.7 mi ENE 9.2 mph - N/A   Partly Cloudy
3:40 PM 91.4 °F - 51.8 °F 26% 29.86 in 3.7 mi East 6.9 mph - N/A   Scattered Clouds
4:10 PM 91.4 °F - 50.0 °F 24% 29.86 in 3.7 mi East 6.9 mph - N/A   Scattered Clouds
4:40 PM 91.4 °F - 48.2 °F 23% 29.86 in 3.7 mi ENE 6.9 mph - N/A   Scattered Clouds
5:10 PM 91.4 °F - 46.4 °F 21% 29.86 in 3.7 mi NE 9.2 mph - N/A   Partly Cloudy
5:30 PM 90 °F - 51 °F 17% 29.88 in 2 mi NE 5.8 mph - -   Scattered Clouds
5:40 PM 89.6 °F - 48.2 °F 24% 29.86 in 3.7 mi NE 6.9 mph - N/A   Partly Cloudy
6:10 PM 87.8 °F - 48.2 °F 25% 29.86 in 3.7 mi NE 5.8 mph - N/A   Unknown
7:10 PM 82.4 °F - 46.4 °F 28% 29.89 in 2.5 mi NNE 3.5 mph - N/A   Smoke
7:40 PM 80.6 °F - 48.2 °F 32% 29.89 in 2.5 mi North 2.3 mph - N/A   Smoke
8:10 PM 78.8 °F - 48.2 °F 34% 29.92 in 2.5 mi NE 2.3 mph - N/A   Smoke
8:30 PM 75 °F - 56 °F 42% 29.93 in 2 mi NNW 2.3 mph - -  
8:40 PM 77.0 °F - 48.2 °F 36% 29.92 in 2.5 mi NNE 3.5 mph - N/A   Smoke
9:10 PM 75.2 °F - 48.2 °F 38% 29.95 in 2.5 mi North 2.3 mph - N/A   Smoke
9:40 PM 75.2 °F - 50.0 °F 41% 29.95 in 2.5 mi Calm Calm - N/A   Smoke
10:10 PM 73.4 °F - 51.8 °F 47% 29.95 in 2.5 mi NNE 2.3 mph - N/A   Smoke
10:40 PM 73.4 °F - 48.2 °F 41% 29.95 in 2.5 mi NNE 2.3 mph - N/A   Smoke
11:10 PM 71.6 °F - 50.0 °F 46% 29.95 in 2.5 mi Calm Calm - N/A   Smoke
11:30 PM 70 °F - 55 °F 50% 29.97 in 2 mi NE 4.6 mph - -   Scattered Clouds
11:40 PM 71.6 °F - 48.2 °F 43% 29.95 in 2.5 mi NNE 3.5 mph - N/A   Smoke